Whitehorse, Yukon Territory

8:43 PM PDT on July 27, 2017 (GMT -0700)
Whitehorse

Weather History for CYXY - February, 2014

Change the Weather History Date:

Thursday, February 6, 2014

  Actual Average Record
Temperature  
Mean Temperature -12 °F -  
Max Temperature 0 °F 19 °F 35 °F (1997)
Min Temperature -23 °F 1 °F -34 °F (2008)
Degree Days  
Heating Degree Days 76    
Moisture  
Dew Point -19 °F    
Average Humidity 70    
Maximum Humidity 78    
Minimum Humidity 54    
Precipitation  
Precipitation 0.00 in 0.02 in - ()
Sea Level Pressure  
Sea Level Pressure 30.44 in    
Wind  
Wind Speed 5 mph ()    
Max Wind Speed 17 mph    
Max Gust Speed 17 mph    
Visibility 15.0 miles    
Events Snow    
Averages and records for this station are not official NWS values.
T = Trace of Precipitation, MM = Missing Value Source: Averaged Metar Reports

Daily Weather History Graph

Daily Weather History Graph

Search for Another Location

Airport or City:

Trip Planner

Search our weather history database for the weather conditions in past years. The results will help you decide how hot, cold, wet, or windy it might be!

Date:

Astronomy

Feb. 06, 2014 Rise Set
Actual Time 9:04 AM PST 5:24 PM PST
Civil Twilight 8:17 AM PST 6:12 PM PST
Nautical Twilight 7:26 AM PST 7:03 PM PST
Astronomical Twilight 6:37 AM PST 7:52 PM PST
Moon 10:54 AM PST (2/6) 2:31 AM PST (2/6)
Length of Visible Light 9h 54m
Length of Day
8h 20m
Waxing Crescent, 50% of the Moon is Illuminated
Feb 6
Waxing Crescent
Feb 14
Full
Feb 22
Last Quarter
Mar 1
New
Mar 8
First Quarter

Hourly Weather History & Observations

Time (PST) Temp. Windchill Dew Point Humidity Pressure Visibility Wind Dir Wind Speed Gust Speed Precip Events Conditions
12:00 AM -16.6 °F - -23.8 °F 70% 30.80 in 15.0 mi Calm Calm - N/A   Clear
1:00 AM -16.6 °F - -22.0 °F 76% 30.79 in 15.0 mi NW 2.3 mph - N/A   Clear
3:00 AM -20.2 °F - -27.4 °F 69% 30.76 in 15.0 mi SSW 2.3 mph - N/A   Clear
4:00 AM -21 °F - -28 °F 57% 30.72 in 15 mi South 4.6 mph - -  
4:00 AM -20.2 °F -30.9 °F -27.4 °F 69% 30.72 in 15.0 mi South 3.5 mph - N/A   Clear
5:00 AM -22.0 °F - -29.2 °F 69% 30.71 in 15.0 mi SW 2.3 mph - N/A   Clear
6:00 AM -22.0 °F - -29.2 °F 69% 30.70 in 15.0 mi Calm Calm - N/A   Clear
7:00 AM -23.8 °F - -31.0 °F 69% 30.67 in 15.0 mi Calm Calm - N/A   Ice Crystals
8:00 AM -23.8 °F -35.0 °F -31.0 °F 69% 30.65 in 15.0 mi South 3.5 mph - N/A   Ice Crystals
9:00 AM -23.8 °F - -31.0 °F 69% 30.61 in 15.0 mi Calm Calm - N/A   Clear
9:33 AM -23.8 °F -35.0 °F -31.0 °F 69% 30.60 in 40.0 mi South 3.5 mph - N/A   Ice Crystals
10:00 AM -23 °F - -30 °F 54% 30.58 in 37 mi SE 5.8 mph - -  
10:00 AM -23.8 °F -37.7 °F -31.0 °F 69% 30.58 in 40.0 mi SE 4.6 mph - N/A   Ice Crystals
11:00 AM -20.2 °F -33.5 °F -25.6 °F 76% 30.54 in 40.0 mi SE 4.6 mph - N/A   Ice Crystals
12:00 PM -13.0 °F -22.7 °F -20.2 °F 70% 30.50 in 40.0 mi SE 3.5 mph - N/A   Ice Crystals
12:23 PM -11.2 °F -23.0 °F -18.4 °F 70% 30.47 in 40.0 mi SE 4.6 mph - N/A Snow Light Snow
1:00 PM -9.4 °F -24.3 °F -14.8 °F 77% 30.42 in 40.0 mi SSE 6.9 mph - N/A Snow Light Snow
2:00 PM -4.0 °F -22.1 °F -9.4 °F 78% 30.35 in 40.0 mi SSE 11.5 mph - N/A Snow Light Snow
2:48 PM -2.2 °F -18.9 °F -9.4 °F 71% 30.30 in 40.0 mi SSE 10.4 mph - N/A   Overcast
3:00 PM -2.2 °F -20.7 °F -9.4 °F 71% 30.29 in 40.0 mi SSE 12.7 mph - N/A   Overcast
4:00 PM -2 °F - -8 °F 62% 30.25 in 37 mi South 13.8 mph - -   Overcast
4:00 PM -2.2 °F -21.5 °F -7.6 °F 78% 30.25 in 40.0 mi South 13.8 mph - N/A   Overcast
5:00 PM -2.2 °F -21.5 °F -9.4 °F 71% 30.20 in 40.0 mi South 13.8 mph - N/A   Overcast
6:00 PM -2.2 °F -20.7 °F -7.6 °F 78% 30.16 in 25.0 mi South 12.7 mph - N/A   Overcast
7:00 PM -0.4 °F -21.2 °F -7.6 °F 72% 30.12 in 15.0 mi South 17.3 mph - N/A   Overcast
8:00 PM -0.4 °F -20.5 °F -7.6 °F 72% 30.09 in 15.0 mi South 16.1 mph - N/A   Overcast
9:00 PM -2.2 °F -18.9 °F -7.6 °F 78% 30.08 in 15.0 mi South 10.4 mph - N/A   Overcast
10:00 PM -2 °F - -8 °F 62% 30.07 in 15 mi South 12.7 mph - -   Overcast
10:00 PM -2.2 °F -18.9 °F -7.6 °F 78% 30.07 in 15.0 mi South 10.4 mph 17.3 mph N/A   Overcast
11:00 PM -2.2 °F -20.7 °F -9.4 °F 71% 30.06 in 15.0 mi South 12.7 mph - N/A   Overcast